(678) Fredegundis
ephemeris date magn radius delta ra dec elong phase
Today11 May 202514.62.925 AU2.412 AU10h39m+00°41'110.7°18.8°
Opposition22 May 202613.63.090 AU2.081 AU15h51m-26°07'174.2°1.9°
(678) Fredegundis - 2025-05-11
astro.vanbuitenen.nl


 
-1 year
-1 month
-1 day
Now
+1 day
+1 month
+1 year

The interactive orbit chart above shows the body's path through the solar system and its position at the given date. Green and blue lines are shown perpendicular to the ecliptic plane: Green if the path is above the ecliptic plane, blue if it is below. (Left-click and drag to rotate the view; Right-click and drag to move the view; Use scroll wheel to zoom in our out.)

The orbital elements of Fredegundis are:

            e (Eccentricity)                : 0.2202350
            a (Semimajor axis)              : 2.5716118
            i (Inclination)                 : 6.09747
            Ω (Longitude of ascending node) : 281.05885
            ω (Argument of perihelion)      : 121.04385
            M (Mean anomaly)                : 117.34997
            Epoch                           : 2025 May 05

            L (Longitude of perihelion)     : 222.24651
            B (Latitude of perihelion)      : 5.22152
            P (Orbital period in years)     : 4.12            
        

The light curve chart below shows the estimated development of the minor planet's magnitude.


The all-sky chart below shows the path of the minor planet over the same period as the light curve. The current position is marked yellow.





The following chart shows the path of the minor planet in the next few days. The field of view is optimized for (~10x50) binoculars and finderscopes. A more printer-friendly version of the same chart can be found below.




Ephemerides:
Date       Time       RA (2000)    DEC (2000)    delta   radius  elong  phase   PA    magn
2025-05-11 00:00 UT   10 39 05.3   +00 41 25     2.412    2.925  110.7   18.8   109   14.6 
2025-05-11 14:58 UT   10 39 17.2   +00 41 36     2.421    2.926  110.1   18.9   109   14.6 
2025-05-12 00:00 UT   10 39 24.6   +00 41 42     2.426    2.927  109.8   18.9   109   14.6 
2025-05-13 00:00 UT   10 39 45.0   +00 41 52     2.441    2.928  108.9   19.0   110   14.6 
2025-05-14 00:00 UT   10 40 06.6   +00 41 54     2.455    2.930  108.0   19.1   110   14.6 
2025-05-15 00:00 UT   10 40 29.3   +00 41 48     2.470    2.932  107.2   19.2   110   14.6 
2025-05-16 00:00 UT   10 40 53.1   +00 41 36     2.484    2.933  106.3   19.3   110   14.7 
2025-05-17 00:00 UT   10 41 18.0   +00 41 16     2.499    2.935  105.5   19.4   110   14.7 
2025-05-18 00:00 UT   10 41 44.0   +00 40 48     2.514    2.936  104.6   19.5   110   14.7 
2025-05-19 00:00 UT   10 42 11.0   +00 40 14     2.528    2.938  103.8   19.5   110   14.7 
2025-05-20 00:00 UT   10 42 39.1   +00 39 32     2.543    2.940  102.9   19.6   111   14.7 
2025-05-21 00:00 UT   10 43 08.2   +00 38 43     2.558    2.941  102.1   19.7   111   14.7 
2025-05-22 00:00 UT   10 43 38.4   +00 37 47     2.573    2.943  101.2   19.7   111   14.8 
2025-05-23 00:00 UT   10 44 09.5   +00 36 44     2.588    2.944  100.4   19.8   111   14.8 
2025-05-24 00:00 UT   10 44 41.7   +00 35 34     2.603    2.946   99.6   19.8   111   14.8 
2025-05-25 00:00 UT   10 45 14.8   +00 34 16     2.618    2.947   98.8   19.9   111   14.8 
2025-05-26 00:00 UT   10 45 48.8   +00 32 52     2.633    2.949   98.0   19.9   111   14.8 
2025-05-27 00:00 UT   10 46 23.9   +00 31 21     2.648    2.950   97.2   19.9   111   14.8 
2025-05-28 00:00 UT   10 46 59.8   +00 29 44     2.663    2.952   96.3   19.9   112   14.8 
2025-05-29 00:00 UT   10 47 36.7   +00 27 59     2.678    2.954   95.5   20.0   112   14.9 
2025-05-30 00:00 UT   10 48 14.4   +00 26 08     2.693    2.955   94.8   20.0   112   14.9 
2025-05-31 00:00 UT   10 48 53.1   +00 24 10     2.708    2.957   94.0   20.0   112   14.9 
2025-06-01 00:00 UT   10 49 32.6   +00 22 05     2.723    2.958   93.2   20.0   112   14.9 
2025-06-02 00:00 UT   10 50 12.9   +00 19 54     2.738    2.960   92.4   20.0   112   14.9 
2025-06-03 00:00 UT   10 50 54.1   +00 17 37     2.753    2.961   91.6   20.0   112   14.9 
2025-06-04 00:00 UT   10 51 36.2   +00 15 13     2.769    2.963   90.8   20.0   112   14.9 
2025-06-05 00:00 UT   10 52 19.0   +00 12 43     2.784    2.964   90.1   20.0   113   15.0 
2025-06-06 00:00 UT   10 53 02.6   +00 10 07     2.799    2.965   89.3   20.0   113   15.0 
2025-06-07 00:00 UT   10 53 46.9   +00 07 25     2.814    2.967   88.5   20.0   113   15.0 
2025-06-08 00:00 UT   10 54 32.1   +00 04 37     2.829    2.968   87.8   20.0   113   15.0 
2025-06-09 00:00 UT   10 55 17.9   +00 01 43     2.844    2.970   87.0   20.0   113   15.0 
2025-06-10 00:00 UT   10 56 04.6   +00 01 17     2.859    2.971   86.3   19.9   113   15.0 


    Terminology:
            
    delta:  distance between minor planet and earth in AU
    radius: distance between minor planet and sun in AU
    magn:   magnitude (brightness) estimate    
    ra:     right ascension in hours (24h = 360deg)
    dec:    declination in degrees
    elong:  elongation in degrees (angle sun-earth-minor planet)    
    phase:  phase angle in degrees (angle sun-minor planet-earth)        
    AU:     Astronomical Unit (mean distance between earth and sun: 149597870.7 km
    

Orbital elements provided by the MPC (Minor Planet Center).
Calculations by a modified version of AAPlus, a C# implementation of the AA+ project by PJ Naughter from the algorithms presented in the book "Astronomical Algorithms" by Jean Meeus.
NGC2000 dso catalog and star labels from VizieR as provided by the Strasbourg astronomical Data Center.
Tycho2 catalog from the ESO archive.